This demonstration page uses our WeatherBlox Daily Observations layout. Learn more.

Left ArrowRight Arrow

39.01783, -85.05884

Hourly Observations for December 2, 2021

Temp ( °F °C ) Dew Point ( °F °C ) Humidity (%) Winds ( mph kmh ) Pressure ( in mb ) Visibility ( mi km ) Precip ( " mm )
12:52 am 00:52 Mostly Cloudy 51 10.6 46 7.8 83 83 SW 7 11 29.91 1013 7 11 N/A
1:52 am 01:52 Cloudy with Mist and Fog 51 10.6 47 8.3 86 86 SW 9 15 29.90 1012 6 10 N/A
2:39 am 02:39 Cloudy with Mist and Fog 52 11.1 47 8.3 83 83 SSW 10 17 29.91 1013 5 8 N/A
2:52 am 02:52 Cloudy with Mist and Fog 51 10.6 47 8.3 86 86 SW 10 17 29.89 1012 5 8 N/A
3:52 am 03:52 Cloudy with Mist and Fog 51 10.6 47 8.3 86 86 WSW 9 15 29.88 1012 5 8 N/A
4:33 am 04:33 Cloudy with Mist and Fog 51 10.6 46 7.8 83 83 SW 13 20 29.88 1012 5 8 N/A
4:52 am 04:52 Cloudy with Mist and Fog 51 10.6 46 7.8 83 83 SW 13 20 29.87 1012 5 8 N/A
5:21 am 05:21 Partly Cloudy with Mist and Fog 50 10 46 7.8 86 86 SW 9 15 29.87 1012 5 8 N/A
5:52 am 05:52 Partly Cloudy with Mist and Fog 49 9.4 46 7.8 90 90 SW 12 19 29.86 1011 4 6 N/A
6:52 am 06:52 Mostly Clear with Mist and Fog 50 10 46 7.8 86 86 SSW 10 17 29.86 1011 4 6 N/A
7:52 am 07:52 Partly Cloudy with Patchy Fog 49 9.4 45 7.2 86 86 SSW 12 19 29.85 1011 3 5 N/A
8:52 am 08:52 Mostly Cloudy with Mist and Fog 51 10.6 46 7.8 83 83 SSW 13 20 29.85 1011 6 10 N/A
9:52 am 09:52 Mostly Cloudy 54 12.2 44 6.7 69 69 WSW 12 19 29.87 1012 9 14 N/A
10:52 am 10:52 Partly Cloudy 57 13.9 43 6.1 60 60 SW 16 26 29.86 1011 10 16 N/A
11:52 am 11:52 Mostly Cloudy 61 16.1 43 6.1 52 52 WSW 18 30 29.83 1010 10 16 N/A
12:52 pm 12:52 Mostly Cloudy 61 16.1 43 6.1 52 52 WSW 13 20 29.83 1010 10 16 N/A
1:52 pm 13:52 Mostly Cloudy 63 17.2 43 6.1 48 48 W 12 19 29.81 1010 10 16 N/A
2:52 pm 14:52 Mostly Cloudy 63 17.2 44 6.7 50 50 W 12 19 29.81 1010 10 16 N/A
3:52 pm 15:52 Mostly Cloudy 64 17.8 42 5.6 45 45 WNW 13 20 29.83 1010 10 16 N/A
4:52 pm 16:52 Mostly Cloudy 61 16.1 41 5 48 48 W 13 20 29.86 1011 10 16 N/A
5:52 pm 17:52 Mostly Cloudy 57 13.9 41 5 55 55 WNW 12 19 29.90 1013 10 16 N/A
6:52 pm 18:52 Partly Cloudy 55 12.8 41 5 59 59 WNW 10 17 29.93 1013 10 16 N/A
7:52 pm 19:52 Mostly Clear 53 11.7 40 4.4 61 61 NW 9 15 29.97 1015 10 16 N/A
8:52 pm 20:52 Mostly Clear 49 9.4 38 3.3 66 66 WNW 8 13 29.98 1015 10 16 N/A
9:52 pm 21:52 Clear 51 10.6 37 2.8 59 59 VRB 7 11 30.01 1016 10 16 N/A
10:52 pm 22:52 Clear 49 9.4 35 1.7 59 59 NW 5 7 30.01 1016 10 16 N/A
11:52 pm 23:52 Clear 42 5.6 34 1.1 73 73 S 5 7 30.03 1017 10 16 N/A

Powered by AerisWeather